GW4039 Weather Reports


time (UTC)temp
F
wind
direction
speed
knots
gust
knots
rain 1hr
in
rain 24hr
in
rain mn
in
humidity
%
barometer
mb
20260506231722 0 165 0.0 0.0 0.07 1.03 1.03 1009.8
20260506231220 0 164 0.0 0.0 0.07 1.03 1.03 1009.5
20260506230716 0 164 0.0 0.0 0.07 1.02 1.02 1009.7
20260506230214 0 176 0.0 0.0 0.00 1.01 1.01 1009.6
20260506225710 0 191 0.0 0.0 0.00 1.01 1.01 1009.8
20260506225207 0 196 0.0 0.0 0.00 1.01 1.01 1009.6
20260506224703 0 169 0.0 0.0 0.05 1.01 1.01 1009.6
20260506224201 0 144 0.9 0.9 0.12 1.01 1.01 1009.6
20260506223657 0 351 0.9 1.7 0.07 1.00 1.00 1009.5
20260506223152 0 158 0.0 0.9 0.00 0.99 0.99 1009.5
20260506222650 0 224 0.0 0.9 0.00 0.99 0.99 1009.7
20260506222145 0 358 1.7 1.7 0.00 0.99 0.99 1009.2
20260506221644 0 209 0.0 0.0 0.00 0.99 0.99 1009.3
20260506221141 0 25 0.9 1.7 0.00 0.99 0.99 1009.0
20260506220638 0 39 3.5 5.2 0.00 0.99 0.99 1009.3
20260506220133 0 312 1.7 1.7 0.05 0.99 0.99 1009.3
20260506215630 0 25 1.7 1.7 0.05 0.99 0.99 1009.5
20260506215125 0 23 4.3 6.1 0.00 0.98 0.98 1009.3
20260506214622 0 288 2.6 2.6 0.07 0.98 0.98 1009.2
20260506214120 0 31 0.0 0.9 0.07 0.98 0.98 1009.1
20260506213618 0 0 1.7 1.7 0.00 0.97 0.97 1009.5
20260506213115 0 4 4.3 5.2 0.00 0.97 0.97 1009.5
20260506212612 0 87 1.7 2.6 0.00 0.97 0.97 1009.2
20260506212107 0 26 0.9 1.7 0.00 0.97 0.97 1008.9
20260506211603 0 10 3.5 6.1 0.00 0.97 0.97 1009.0
20260506211100 0 99 3.5 3.5 0.00 0.97 0.97 1008.9
20260506210556 0 39 1.7 1.7 0.00 0.97 0.97 1008.8
20260506210053 0 41 0.0 0.9 0.00 0.97 0.97 1008.9
20260506205550 0 126 0.0 0.0 0.00 0.97 0.97 1008.6
20260506205045 0 17 0.0 0.9 0.00 0.97 0.97 1008.6
20260506204543 0 23 0.9 1.7 0.00 0.97 0.97 1008.7
20260506204040 0 31 0.9 1.7 0.05 0.97 0.97 1008.7
20260506203538 0 65 0.0 0.0 0.05 0.97 0.97 1008.8
20260506203034 0 60 1.7 1.7 0.07 0.96 0.96 1008.8
20260506202532 0 349 0.9 1.7 0.07 0.96 0.96 1008.7
20260506202028 0 135 0.9 1.7 0.05 0.95 0.95 1008.8
20260506201526 0 216 0.0 0.9 0.05 0.95 0.95 1008.8
20260506201022 0 0 1.7 1.7 0.12 0.95 0.95 1008.6
20260506200518 0 14 0.9 0.9 0.07 0.94 0.94 1008.8
20260506200015 0 123 0.9 0.9 0.05 0.93 0.93 1008.7
20260506195513 0 17 0.9 1.7 0.05 0.93 0.93 1009.0
20260506195009 0 358 0.0 0.9 0.00 0.92 0.92 1008.9
20260506194506 0 124 0.9 0.9 0.00 0.92 0.92 1009.0
20260506194003 0 103 0.0 0.9 0.00 0.92 0.92 1008.8
20260506193500 0 353 1.7 1.7 0.07 0.92 0.92 1008.8
20260506192956 0 270 0.0 0.0 0.07 0.92 0.92 1008.9
20260506192453 0 177 0.0 0.9 0.00 0.91 0.91 1008.8
20260506191949 0 243 0.0 0.0 0.00 0.91 0.91 1008.9
20260506191447 0 101 0.9 0.9 0.00 0.91 0.91 1008.9
20260506190943 0 215 1.7 1.7 0.00 0.91 0.91 1008.8
20260506190440 0 167 0.0 0.0 0.00 0.91 0.91 1008.9
20260506185937 0 21 0.9 1.7 0.00 0.91 0.91 1008.8
20260506185434 0 329 0.9 0.9 0.00 0.91 0.91 1008.8
20260506184931 0 17 1.7 1.7 0.07 0.91 0.91 1009.1
20260506184427 0 26 1.7 1.7 0.07 0.91 0.91 1008.9
20260506183925 0 183 0.0 0.0 0.05 0.90 0.90 1009.0
20260506183420 0 166 0.0 0.0 0.05 0.90 0.90 1009.1
20260506182918 0 46 0.0 0.9 0.07 0.89 0.89 1009.2
20260506182415 0 100 0.0 0.9 0.07 0.89 0.89 1009.2
20260506181912 0 9 1.7 1.7 0.12 0.89 0.89 1009.8
20260506181410 0 357 2.6 5.2 0.05 0.88 0.88 1009.5
20260506180907 0 73 0.0 0.0 0.07 0.87 0.87 1009.3
20260506180402 0 338 1.7 2.6 0.12 0.87 0.87 1009.6
20260506175859 0 346 3.5 3.5 0.17 0.86 0.86 1009.6
20260506175356 0 3 1.7 1.7 0.24 0.85 0.85 1009.3
20260506174853 0 5 4.3 5.2 0.17 0.84 0.84 1009.6
20260506174351 0 329 1.7 1.7 0.12 0.82 0.82 1009.3
20260506173848 0 26 1.7 2.6 0.07 0.81 0.81 1009.5
20260506173344 0 358 1.7 2.6 0.05 0.80 0.80 1009.3
20260506172842 0 57 3.5 6.1 0.05 0.80 0.80 1009.3
20260506172338 0 10 1.7 3.5 0.12 0.80 0.80 1009.5
20260506171836 0 16 0.9 1.7 0.14 0.79 0.79 1009.6
20260506171333 0 230 1.7 2.6 0.12 0.78 0.78 1009.8
20260506170830 0 35 1.7 1.7 0.12 0.77 0.77 1009.6
20260506170326 0 357 4.3 5.2 0.19 0.76 0.76 1009.8
20260506165825 0 345 5.2 6.1 0.17 0.75 0.75 1009.3
20260506165323 0 284 0.9 0.9 0.24 0.74 0.74 1009.7
20260506164813 0 27 1.7 1.7 0.19 0.72 0.72 1009.7
20260506164309 0 341 3.5 5.2 0.19 0.70 0.70 1009.6
20260506163807 0 44 2.6 3.5 0.17 0.69 0.69 1009.8
20260506163301 0 14 1.7 1.7 0.12 0.67 0.67 1009.5
20260506162757 0 94 1.7 1.7 0.14 0.66 0.66 1009.9
20260506162256 0 340 6.1 8.7 0.12 0.65 0.65 1009.5
20260506161752 0 358 5.2 7.0 0.12 0.64 0.64 1009.7
20260506161250 0 5 2.6 3.5 0.12 0.63 0.63 1009.8
20260506160747 0 339 2.6 3.5 0.12 0.62 0.62 1009.7
20260506160243 0 28 2.6 5.2 0.12 0.61 0.61 1009.8
20260506155743 0 52 5.2 7.0 0.12 0.60 0.60 1009.9
20260506155239 0 22 1.7 2.6 0.12 0.59 0.59 1009.9
20260506153347 0 340 3.5 3.5 0.17 0.56 0.56 1010.0
20260506152843 0 72 1.7 1.7 0.12 0.55 0.55 1009.9
20260506152341 0 31 0.9 1.7 0.19 0.54 0.54 1010.0
20260506151839 0 13 0.9 0.9 0.12 0.52 0.52 1010.1
20260506151335 0 359 1.7 1.7 0.17 0.51 0.51 1010.2
20260506150833 0 300 1.7 3.5 0.19 0.50 0.50 1010.1
20260506150330 0 25 1.7 2.6 0.12 0.48 0.48 1010.1
20260506145826 0 193 1.7 1.7 0.17 0.47 0.47 1010.1
20260506145323 0 31 4.3 5.2 0.19 0.46 0.46 1010.1
20260506144821 0 35 2.6 3.5 0.12 0.45 0.45 1010.0
20260506144317 0 25 1.7 1.7 0.05 0.43 0.43 1010.2
20260506143816 0 38 0.0 0.9 0.12 0.43 0.43 1010.0
20260506143312 0 201 0.0 0.9 0.19 0.42 0.42 1010.1
20260506142810 0 336 0.0 0.9 0.19 0.41 0.41 1010.2
20260506142308 0 34 2.6 2.6 0.12 0.39 0.39 1010.0
20260506141806 0 141 0.9 0.9 0.12 0.38 0.38 1010.2
20260506141304 0 256 2.6 2.6 0.12 0.37 0.37 1010.3
20260506140801 0 358 3.5 3.5 0.12 0.36 0.36 1010.1
20260506140258 0 179 0.0 0.0 0.12 0.35 0.35 1010.3
20260506135755 0 75 0.0 0.9 0.05 0.34 0.34 1010.1
20260506135251 0 358 0.9 1.7 0.12 0.34 0.34 1010.1
20260506134748 0 261 1.7 2.6 0.19 0.33 0.33 1010.0
20260506134244 0 83 0.0 0.0 0.17 0.32 0.32 1010.2
20260506133742 0 22 1.7 1.7 0.12 0.30 0.30 1010.1
20260506133238 0 172 0.0 0.9 0.14 0.29 0.29 1010.1
20260506132735 0 12 2.6 2.6 0.12 0.28 0.28 1010.2
20260506132232 0 52 3.5 5.2 0.17 0.27 0.27 1009.9
20260506131730 0 55 2.6 3.5 0.19 0.26 0.26 1010.5
20260506131226 0 332 1.7 3.5 0.12 0.24 0.24 1010.5
20260506130723 0 22 1.7 2.6 0.19 0.24 0.24 1010.4
20260506130220 0 67 0.9 1.7 0.12 0.22 0.22 1010.1
20260506125718 0 33 2.6 2.6 0.12 0.21 0.21 1010.3
20260506125216 0 235 0.9 0.9 0.07 0.20 0.20 1010.3
20260506124714 0 3 0.9 1.7 0.05 0.19 0.19 1010.0
20260506124211 0 354 1.7 1.7 0.12 0.19 0.19 1010.3
20260506123708 0 39 1.7 2.6 0.12 0.18 0.18 1010.0
20260506123207 0 90 2.6 3.5 0.12 0.17 0.17 1010.1
20260506122704 0 208 0.0 0.9 0.14 0.16 0.16 1010.2
20260506122201 0 28 1.7 2.6 0.07 0.15 0.15 1010.4
20260506121659 0 181 0.9 0.9 0.12 0.15 0.15 1010.5
20260506121155 0 348 0.9 1.7 0.17 0.14 0.14 1010.6
20260506120653 0 267 2.6 3.5 0.05 0.12 0.12 1010.3
20260506120150 0 33 3.5 3.5 0.07 0.11 0.11 1010.4
20260506115649 0 334 1.7 1.7 0.12 0.11 0.11 1010.3
20260506115146 0 306 3.5 3.5 0.12 0.10 0.10 1010.1
20260506114643 0 25 3.5 6.1 0.12 0.09 0.09 1010.3
20260506114141 0 188 1.7 2.6 0.05 0.08 0.08 1010.0
20260506113640 0 35 1.7 2.6 0.00 0.07 0.07 1010.5
20260506113136 0 99 0.9 1.7 0.00 0.07 0.07 1009.8
20260506112632 0 39 0.9 0.9 0.07 0.07 0.07 1010.5
20260506112130 0 202 0.0 0.0 0.07 0.07 0.07 1010.2
20260506111628 0 56 0.9 1.7 0.00 0.06 0.06 1010.1
20260506111125 0 205 0.0 0.9 0.00 0.06 0.06 1010.4
20260506110622 0 31 1.7 2.6 0.05 0.06 0.06 1009.9
20260506110120 0 186 0.9 0.9 0.05 0.06 0.06 1010.5
20260506105616 0 210 0.0 0.9 0.05 0.06 0.06 1010.1
20260506105113 0 46 0.9 0.9 0.07 0.05 0.05 1010.5
20260506104611 0 332 1.7 1.7 0.07 0.05 0.05 1010.1
20260506104108 0 266 1.7 2.6 0.00 0.04 0.04 1010.8
20260506103606 0 258 0.9 0.9 0.05 0.04 0.04 1010.2
20260506103102 0 63 0.0 0.0 0.12 0.04 0.04 1010.5
20260506102601 0 232 0.9 0.9 0.07 0.03 0.03 1010.3
20260506102058 0 37 2.6 2.6 0.00 0.02 0.02 1010.1
20260506101554 0 3 2.6 2.6 0.00 0.02 0.02 1009.8
20260506101051 0 46 1.7 2.6 0.00 0.02 0.02 1009.8
20260506100550 0 9 1.7 2.6 0.00 0.02 0.02 1009.8
20260506100047 0 66 0.0 0.0 0.00 0.02 0.02 1009.9
20260506095546 0 242 0.0 0.9 0.00 0.02 0.02 1010.0
20260506095042 0 209 0.9 0.9 0.07 0.02 0.02 1010.0
20260506094540 0 208 0.0 0.0 0.07 0.02 0.02 1009.9
20260506094038 0 222 1.7 1.7 0.00 0.01 0.01 1010.1
20260506093536 0 209 0.0 0.0 0.00 0.01 0.01 1009.9
20260506093033 0 209 0.0 0.0 0.00 0.01 0.01 1010.0
20260506092531 0 221 0.0 0.9 0.00 0.01 0.01 1010.0
20260506092027 0 245 1.7 1.7 0.00 0.01 0.01 1010.3
20260506091526 0 190 0.0 0.9 0.00 0.01 0.01 1010.0
20260506091022 0 187 0.0 0.0 0.00 0.01 0.01 1010.2
20260506090520 0 241 2.6 2.6 0.00 0.01 0.01 1010.5
20260506090016 0 141 0.9 0.9 0.00 0.01 0.01 1010.2
20260506085513 0 0 2.6 2.6 0.00 0.01 0.01 1010.7
20260506085010 0 265 2.6 2.6 0.00 0.01 0.01 1011.4
20260506084507 0 204 0.0 0.0 0.00 0.01 0.01 1010.6
20260506084003 0 206 0.0 0.0 0.00 0.01 0.01 1010.4
20260506083500 0 208 0.9 0.9 0.00 0.01 0.01 1010.6
20260506082957 0 204 0.0 0.0 0.00 0.01 0.01 1010.4
20260506082454 0 218 0.9 0.9 0.00 0.01 0.01 1010.6
20260506081950 0 250 0.0 0.9 0.00 0.01 0.01 1010.6
20260506081448 0 205 0.0 0.9 0.00 0.01 0.01 1010.5
20260506080945 0 47 0.9 0.9 0.00 0.01 0.01 1010.6
20260506080442 0 70 0.9 0.9 0.00 0.01 0.01 1010.6
20260506073426 0 230 1.7 2.6 0.00 0.01 0.01 1011.3
20260506072923 0 212 0.0 0.9 0.00 0.01 0.01 1010.7
20260506072420 0 193 0.0 0.9 0.00 0.01 0.01 1010.8
20260506071918 0 207 1.7 1.7 0.00 0.01 0.01 1010.6
20260506071416 0 221 2.6 2.6 0.00 0.01 0.01 1011.0
20260506070912 0 257 1.7 1.7 0.00 0.01 0.01 1010.7
20260506070409 0 196 2.6 5.2 0.00 0.01 0.01 1010.5
20260506062347 0 247 0.9 1.7 0.00 0.01 0.01 1010.6
20260506061843 0 197 1.7 1.7 0.00 0.01 0.01 1010.6
20260506061339 0 219 0.0 0.0 0.00 0.01 0.01 1010.7
20260506060838 0 219 0.0 0.0 0.00 0.01 0.01 1010.5
20260506060335 0 219 0.9 0.9 0.00 0.01 0.01 1010.6
20260506051307 0 211 0.0 0.0 0.00 0.01 0.01 1011.0
20260506050805 0 207 0.9 0.9 0.00 0.01 0.01 1010.8
20260506050302 0 189 0.9 0.9 0.00 0.01 0.01 1011.0
20260506044752 0 194 0.0 0.9 0.00 0.01 0.01 1011.3
20260506044250 0 214 0.9 0.9 0.00 0.01 0.01 1011.3
20260506043747 0 182 0.0 0.9 0.00 0.01 0.01 1011.1
20260506043244 0 162 0.0 0.0 0.05 0.01 0.01 1011.1
20260506042743 0 203 0.0 0.0 0.05 0.01 0.01 1011.5
20260506042242 0 230 0.0 0.0 0.00 0.00 0.00 1011.6
20260506041739 0 187 0.0 0.0 0.00 0.00 0.00 1011.6
20260506041236 0 111 0.0 0.9 0.00 0.00 0.00 1011.3
20260506040734 0 260 1.7 2.6 0.00 0.00 0.00 1011.2
20260506040231 0 196 0.9 0.9 0.00 0.00 0.00 1010.9
20260506035727 0 204 1.7 1.7 0.00 0.06 0.06 1011.3
20260506035224 0 269 5.2 6.1 0.00 0.06 0.06 1011.2
20260506034721 0 169 0.0 0.9 0.00 0.06 0.06 1010.7
20260506034218 0 178 0.0 0.0 0.00 0.06 0.06 1011.1
20260506033716 0 193 2.6 2.6 0.00 0.06 0.06 1011.0
20260506033212 0 202 0.0 0.9 0.00 0.06 0.06 1010.9
20260506032709 0 182 0.9 1.7 0.00 0.06 0.06 1011.0
20260506032206 0 179 0.9 0.9 0.00 0.06 0.06 1010.5
20260506031703 0 109 1.7 1.7 0.00 0.06 0.06 1011.0
20260506031200 0 180 3.5 3.5 0.00 0.06 0.06 1011.0
20260506030659 0 200 0.9 0.9 0.00 0.06 0.06 1010.9
20260506030155 0 179 0.9 0.9 0.00 0.06 0.06 1010.7
20260506025646 0 222 2.6 5.2 0.07 0.06 0.06 1010.8
20260506025142 0 273 5.2 7.8 0.07 0.06 0.06 1010.8
20260506024640 0 263 3.5 3.5 0.05 0.05 0.05 1010.8
20260506024136 0 224 1.7 2.6 0.05 0.05 0.05 1010.7
20260506023633 0 215 5.2 6.1 0.00 0.04 0.04 1010.6
20260506023130 0 251 4.3 5.2 0.00 0.04 0.04 1010.5
20260506022627 0 301 6.1 8.7 0.00 0.04 0.04 1010.4
20260506022125 0 330 3.5 5.2 0.00 0.04 0.04 1010.2
20260506021622 0 232 0.9 1.7 0.00 0.04 0.04 1010.1
20260506021119 0 353 2.6 3.5 0.00 0.04 0.04 1010.1
20260506020616 0 19 0.9 0.9 0.00 0.04 0.04 1009.7
20260506020113 0 186 1.7 1.7 0.00 0.04 0.04 1009.8
20260506015611 0 209 0.0 0.9 0.00 0.04 0.04 1009.9
20260506015107 0 213 0.0 0.0 0.00 0.04 0.04 1009.6
20260506014605 0 210 0.9 0.9 0.00 0.04 0.04 1009.7
20260506014100 0 216 0.0 0.0 0.00 0.04 0.04 1009.5
20260506013559 0 201 0.9 0.9 0.00 0.04 0.04 1009.6
20260506013055 0 178 0.9 0.9 0.00 0.04 0.04 1009.1
20260506012551 0 150 2.6 2.6 0.00 0.04 0.04 1009.3
20260506012048 0 176 0.9 1.7 0.00 0.04 0.04 1009.1
20260506011546 0 9 0.0 0.0 0.00 0.04 0.04 1009.2
20260506011042 0 9 1.7 1.7 0.00 0.04 0.04 1009.5
20260506010536 0 332 0.9 1.7 0.00 0.04 0.04 1009.3
20260506010032 0 246 0.0 0.9 0.00 0.04 0.04 1009.5
20260506005529 0 1 1.7 2.6 0.00 0.04 0.04 1009.2
20260506005025 0 217 0.9 1.7 0.00 0.04 0.04 1009.2
20260506004523 0 240 1.7 1.7 0.00 0.04 0.04 1009.0
20260506004019 0 211 0.0 0.0 0.00 0.04 0.04 1008.6
20260506003515 0 219 0.9 0.9 0.00 0.04 0.04 1008.7
20260506003011 0 215 0.9 0.9 0.00 0.04 0.04 1008.5
20260506002508 0 192 0.0 0.0 0.00 0.04 0.04 1007.9
20260506002003 0 215 0.0 0.0 0.00 0.04 0.04 1008.6
20260506001500 0 200 0.0 0.9 0.00 0.04 0.04 1008.5
20260506000957 0 194 3.5 3.5 0.00 0.04 0.04 1008.3
20260506000450 0 173 0.0 0.0 0.00 0.04 0.04 1008.0
20260505235946 0 200 0.0 0.9 0.00 0.04 0.04 1007.9
20260505235445 0 157 0.9 1.7 0.00 0.04 0.04 1008.3
20260505234941 0 215 1.7 2.6 0.00 0.04 0.04 1007.8
20260505234439 0 160 0.9 1.7 0.00 0.04 0.04 1007.9
20260505233935 0 194 0.9 1.7 0.00 0.04 0.04 1008.1
20260505233433 0 210 0.9 1.7 0.00 0.04 0.04 1007.8
20260505232930 0 188 1.7 2.6 0.00 0.04 0.04 1007.8
20260505232428 0 167 0.0 0.0 0.00 0.04 0.04 1007.9
20260505231925 0 177 1.7 2.6 0.00 0.04 0.04 1007.8